#timestamp,LO_Frequency,Hit,StdDev 
1577206815.6,286046999.1,N
1577206835.5,286046999.6,N
1577206855.3,286046998.2,N
1577206875.2,286046999.7,N
1577206895.9,286047002.4,N
1577206915.7,286047000.4,N
1577206935.6,286046999.4,N
1577206955.4,286046999.2,N
1577206975.3,286046996.5,N
1577206995.1,286046999.3,N
1577206996.0,286046999.3,N
1577207015.8,286046998.5,N
1577207035.7,286046998.6,N
1577207055.5,286046997.3,N
1577207075.3,286046997.8,N
1577207095.2,286046996.8,N
1577207115.0,286046996.7,N
1577207115.9,286046996.7,N
1577207135.8,286046997.0,N
1577207155.6,286046997.2,N
1577207175.4,286046996.6,N
1577207195.3,286046998.3,N
1577207215.1,286046998.2,N
1577207235.8,286047000.9,N
1577207255.7,286046998.5,N
1577207275.5,286046999.1,N
1577207295.4,286047001.2,N
1577207315.2,286047000.5,N
1577207335.0,286046998.5,N
1577207335.9,286046998.5,N
1577207355.8,286046996.5,N
1577207375.6,286046998.1,N
1577207395.4,286046998.4,N
1577207415.3,286047001.1,N
1577207435.1,286046998.3,N
1577207455.9,286047000.6,N
1577207475.7,286047001.0,N
1577207495.5,286047001.1,N
1577207515.4,286047000.4,N
1577207535.2,286046998.2,N
1577207555.1,286046999.6,N
1577207556.0,286046999.6,N
1577207575.8,286047001.1,N
1577207595.6,286047000.7,N
1577207615.5,286046999.2,N
1577207635.3,286046999.4,N
1577207655.1,286046998.4,N
1577207675.9,286046999.6,N
1577207695.7,286046998.6,N
1577207715.6,286046997.0,N
1577207735.4,286047001.2,N
1577207755.2,286047000.0,N
1577207775.1,286047000.9,N
1577207776.0,286047000.9,N
1577207795.8,286047000.8,N
1577207815.7,286046999.3,N
1577207835.5,286046997.2,N
1577207855.3,286046996.6,N
1577207875.2,286046997.0,N
1577207895.0,286046999.4,N
1577207895.9,286046999.4,N
1577207915.7,286047001.0,N
1577207935.6,286046999.9,N
1577207955.4,286047000.7,N
1577207975.3,286047000.0,N
1577207995.1,286047002.6,N
1577207996.0,286047002.6,N
1577208015.8,286047001.2,N
1577208035.7,286046999.5,N
1577208055.5,286046998.5,N
1577208075.4,286046998.8,N
1577208095.2,286046996.6,N
1577208115.0,286047000.0,N
1577208115.9,286047000.0,N
1577208135.8,286046999.0,N
1577208155.6,286046998.9,N
1577208175.4,286046999.5,N
1577208195.3,286046997.9,N
1577208215.1,286046995.3,N
1577208235.9,286046995.9,N
1577208255.7,286046996.2,N
1577208275.5,286046995.3,N
1577208295.4,286046997.8,N
1577208315.2,286046995.3,N
1577208335.0,286046995.2,N
1577208335.9,286046995.2,N
1577208355.8,286046998.0,N
1577208375.6,286046996.8,N
1577208395.5,286046995.4,N
1577208415.3,286046996.7,N
1577208435.1,286046996.8,N
1577208455.9,286046996.6,N
1577208475.7,286046998.9,N
1577208495.6,286046997.4,N
1577208515.4,286046998.8,N
1577208535.2,286047001.1,N
1577208555.1,286046999.2,N
1577208556.0,286046999.2,N
1577208575.8,286046996.6,N
1577208595.6,286046998.7,N
1577208615.5,286046998.4,N
1577208635.3,286047000.2,N
1577208655.2,286047002.2,N
1577208675.9,286047002.0,N
1577208695.7,286047000.2,N
1577208715.6,286047002.4,N
1577208735.4,286047001.6,N
1577208755.2,286047003.6,N
1577208775.1,286047002.8,N
1577208776.0,286047002.8,N
1577208795.8,286047000.9,N
1577208815.7,286046997.0,N
1577208835.5,286047000.3,N
1577208855.3,286047001.6,N
1577208875.2,286047000.5,N
1577208895.0,286047000.4,N
1577208895.9,286047000.4,N
1577208915.7,286047002.4,N
1577208935.6,286047001.9,N
1577208955.4,286047003.7,N
1577208975.3,286047001.5,N
1577208995.1,286047001.8,N
1577209015.8,286047002.9,N
1577209035.7,286047001.5,N
1577209055.5,286047001.0,N
1577209075.4,286047000.1,N
1577209095.2,286047000.2,N
1577209115.0,286047001.0,N
1577209115.9,286047001.0,N
1577209135.8,286046998.5,N
1577209155.6,286047002.1,N
1577209175.4,286047001.7,N
1577209195.3,286047004.0,N
1577209215.1,286047000.4,N
1577209235.9,286047001.2,N
1577209255.7,286046998.2,N
1577209275.5,286047001.0,N
1577209295.4,286047000.5,N
1577209315.2,286046998.1,N
1577209335.0,286046998.5,N
1577209335.9,286046998.5,N
1577209355.8,286046998.6,N
1577209375.6,286046999.4,N
1577209395.5,286046999.2,N
1577209415.3,286046997.8,N
1577209435.1,286046995.7,N
1577209455.9,286046994.9,N
1577209475.7,286046997.6,N
1577209495.6,286046997.1,N
1577209515.4,286046996.5,N
1577209535.2,286046997.0,N
1577209555.1,286046999.2,N
1577209556.0,286046999.2,N
1577209575.8,286046998.6,N
1577209595.6,286047000.8,N
1577209615.5,286046997.0,N
1577209635.3,286046997.5,N
1577209655.2,286046995.4,N
1577209675.9,286046993.3,Y
1577209695.7,286046997.6,P
1577209715.6,286046995.5,P
1577209735.4,286046993.5,P
1577209755.2,286046996.2,N
1577209775.1,286046996.4,N
1577209776.0,286046996.4,N
1577209795.8,286046995.6,N
1577209815.7,286046995.7,N
1577209835.5,286046997.6,N
1577209855.3,286046996.7,N
1577209875.2,286046995.4,Y
1577209895.0,286046998.2,P
1577209895.9,286046998.2,N
1577209915.8,286047000.7,N
1577209935.6,286046998.2,N
1577209955.4,286047001.9,N
1577209975.3,286047000.5,N
1577209995.1,286047002.0,N
1577210015.9,286047002.8,N
1577210035.7,286047000.2,N
1577210055.5,286046999.8,N
1577210075.4,286046998.8,N
1577210095.2,286047000.8,N
1577210115.0,286046998.3,N
1577210115.9,286046998.3,N
1577210135.8,286046998.4,N
1577210155.6,286047001.0,N
1577210175.5,286047002.6,N
1577210195.3,286047000.7,N
1577210215.1,286047002.0,N
1577210235.9,286047000.0,N
1577210255.7,286047000.4,N
1577210275.5,286047001.5,N
1577210295.4,286047002.6,N
1577210315.2,286047003.8,N
1577210335.1,286047002.5,N
1577210336.0,286047002.5,N
1577210355.8,286046999.8,N
1577210375.6,286047002.8,N
1577210395.5,286047002.3,N
